Location: Ailly
(50.0793°N, 1.9944°E)
Time: 15:53:52
(UTC+00:00)

GRACE-FO 2 - Pass Details

Date: 15 January 2026
Orbit: 448 x 460 km, 89.0° (Epoch: 10 February)

Event Time Altitude Azimuth Distance (km) Brightness Sun altitude
Rises 06:58:05 0° 184° (S) 2,449 8.4 -7.4°
Reaches altitude 10° 07:00:08 10° 187° (S) 1,584 7.4 -7.1°
Maximum altitude 07:03:33 68° 271° (W) 496 4.4 -6.6°
Drops below altitude 10° 07:07:00 10° 355° (N) 1,607 6.9 -6.1°
Sets 07:09:06 0° 358° (N) 2,489 7.9 -5.8°
